Вернуться в каталог

STARLINK-30357

АктивенСвязьVLEO
NORAD 57750·PAYLOAD·🇺🇸 United States

Запущен Sep 1, 2023 с Cape Canaveral Space Force Station

Loading…

Ближайшие Пролёты (ближайшие 24 часа)

TLE

СвежийSource: CelesTrak SupGP

Эпоха: Sep 15, 2026, 03:03 UTC

1 57750C 23131U   26258.12756944 -.00011490  00000+0 -41626-3 0  2581
2 57750  43.0028 190.0284 0001355 272.6690   5.2814 15.27575585    14

Отслеживайте STARLINK-30357 в реальном времени с AllMySat

Download on the App Store